This demonstration page uses our WeatherBlox Daily Observations layout. Learn more.

Left ArrowRight Arrow

34.16533, -84.80231

Hourly Observations for July 22, 2016

Temp ( °F °C ) Dew Point ( °F °C ) Humidity (%) Winds ( mph kmh ) Pressure ( in mb ) Visibility ( mi km ) Precip ( " mm )
12:53 am 00:53 Clear 72 22.2 70 21.1 94 94 Calm 30.11 1020 10 16 0.00 0.00
1:53 am 01:53 Clear 73 22.8 70 21.1 90 90 ENE 3 6 30.10 1019 10 16 0.00 0.00
2:53 am 02:53 Clear 72 22.2 69 20.6 91 91 Calm 30.06 1018 10 16 0.00 0.00
3:53 am 03:53 Clear 71 21.7 69 20.6 94 94 Calm 30.08 1019 10 16 0.00 0.00
4:53 am 04:53 Clear 69 20.6 68 20 96 96 Calm 30.07 1018 10 16 0.00 0.00
5:53 am 05:53 Clear 70 21.1 69 20.6 97 97 Calm 30.08 1019 10 16 0.00 0.00
6:53 am 06:53 Sunny 70 21.1 69 20.6 97 97 Calm 30.09 1019 9 14 0.00 0.00
7:53 am 07:53 Sunny 71 21.7 70 21.1 96 96 Calm 30.09 1019 7 11 0.00 0.00
8:53 am 08:53 Sunny 76 24.4 71 21.7 85 85 SE 6 9 30.09 1019 10 16 0.00 0.00
9:53 am 09:53 Sunny 80 26.7 71 21.7 74 74 Calm 30.09 1019 10 16 0.00 0.00
10:53 am 10:53 Sunny 82 27.8 71 21.7 69 69 Calm 30.10 1019 10 16 0.00 0.00
11:53 am 11:53 Mostly Sunny 83 28.3 71 21.7 67 67 SSW 5 7 30.10 1019 10 16 0.00 0.00
12:53 pm 12:53 Sunny 87 30.6 70 21.1 57 57 VRB 3 6 30.09 1019 10 16 0.00 0.00
1:53 pm 13:53 Sunny 89 31.7 71 21.7 55 55 VRB 5 7 30.07 1018 10 16 0.00 0.00
2:53 pm 14:53 Mostly Sunny 90 32.2 70 21.1 52 52 Calm 30.05 1018 10 16 0.00 0.00
3:53 pm 15:53 Partly Cloudy 92 33.3 70 21.1 49 49 VRB 6 9 30.02 1017 10 16 0.00 0.00
4:53 pm 16:53 Sunny 94 34.4 69 20.6 44 44 Calm 29.99 1016 10 16 0.00 0.00
5:53 pm 17:53 Sunny 92 33.3 69 20.6 47 47 SSE 3 6 29.97 1015 10 16 0.00 0.00
6:53 pm 18:53 Sunny 90 32.2 70 21.1 52 52 S 3 6 29.97 1015 10 16 0.00 0.00
7:53 pm 19:53 Sunny 83 28.3 75 23.9 77 77 S 3 6 29.97 1015 10 16 0.00 0.00
8:53 pm 20:53 Mostly Clear 82 27.8 74 23.3 77 77 SE 3 6 29.98 1015 10 16 0.00 0.00
9:53 pm 21:53 Mostly Clear 81 27.2 72 22.2 74 74 Calm 29.98 1015 10 16 0.00 0.00
10:53 pm 22:53 Mostly Clear 76 24.4 73 22.8 91 91 Calm 30.01 1016 10 16 0.00 0.00
11:53 pm 23:53 Partly Cloudy 76 24.4 73 22.8 91 91 Calm 30.02 1017 10 16 0.00 0.00

Powered by AerisWeather